TJS-2 (41911 NORAD) Tracking and Keplerian Element Data

This shows tracking and keplerian element data for the satellite.

Feedback or suggestion? Click here.




ElementValue
Catalog41911
NameTJS-2
Epoch Orbit1129
Epoch Day22.56269044
Epoch Year2020
RAAN280.5053
Inclination0.2376
Eccentricity0.0005286
Argument of Perigee42.6645
Mean Anonmoly108.2512
Mean Motion1.00275854
Decay Rate-3.5E-06
L11 41911U 17001A 20022.56269044 -.00000350 00000-0 00000-0 0 9996
L22 41911 0.2376 280.5053 0005286 42.6645 108.2512 1.00275854 11291

Live tracking and technical data element details for TJS-2 (NORAD 41911). TJS-2 can be tracked NOW for your location showing map with azimuth and elevation plus other details from your city location.

Track the satellite on the map from your city or location and see movement details for azimuth, elevation, latitude, longitude, range, height, and movement on the map or in text.







IsCatalogInMostPopularTable: catalog: 41911, numindb: 367
Update: records affected: 1



GetName: 41911 TJS-2

Hit Count: updated at: Fri, 24 Jan 2020 12:03:12 GMT